This demonstration page uses our WeatherBlox Daily Observations layout. Learn more.

Left ArrowRight Arrow

Hourly Observations for November 17, 2015

Temp ( °F °C ) Dew Point ( °F °C ) Humidity (%) Winds ( mph kmh ) Pressure ( in mb ) Visibility ( mi km ) Precip ( " mm )
12:14 am 00:14 Cloudy with Light Rain 53 11.7 50 10 89 89 SE 3 6 29.56 1001 6 10 0.02 0.51
12:23 am 00:23 Cloudy with Thunderstorms 53 11.7 50 10 89 89 Calm 29.56 1001 8 13 0.03 0.76
12:46 am 00:46 Cloudy with Nearby Thunderstorms 52 11 52 11 100 100 Calm 29.56 1001 4 6 0.00 0.00
12:53 am 00:53 Cloudy with Nearby Thunderstorms 52 11.1 51 10.6 97 97 E 5 7 29.53 1000 4 6 0.16 4.06
1:01 am 01:01 Cloudy with Rain 52 11.1 52 11.1 100 100 ENE 5 7 29.53 1000 5 8 0.02 0.51
1:53 am 01:53 Partly Cloudy 52 11.1 51 10.6 97 97 ENE 10 17 29.42 996 10 16 0.05 1.27
2:53 am 02:53 Cloudy with Light Rain 52 11.1 49 9.4 89 89 ESE 10 17 29.43 997 10 16 0.00 0.03
3:53 am 03:53 Cloudy with Light Rain 52 11.1 50 10 93 93 E 15 24 29.44 997 10 16 0.07 1.78
4:53 am 04:53 Cloudy with Light Rain 52 11.1 50 10 93 93 ESE 12 19 29.47 998 7 11 0.04 1.02
5:46 am 05:46 Cloudy 52 11 50 10 94 94 NNE 7 11 29.50 999 10 16 0.00 0.00
5:53 am 05:53 Cloudy 52 11.1 50 10 93 93 N 10 17 29.47 998 10 16 0.01 0.25
6:53 am 06:53 Cloudy 45 7.2 43 6.1 93 93 NNE 15 24 29.49 999 9 14 0.01 0.25
7:23 am 07:23 Cloudy with Mist and Fog 43 6.1 41 5 93 93 N 20 31 29.53 1000 6 10 0.00 0.00
7:53 am 07:53 Cloudy with Mist and Fog 42 5.6 40 4.4 92 92 N 21 33 29.49 999 5 8 0.00 0.00
8:08 am 08:08 Cloudy with Mist and Fog 41 5 40 4.4 96 96 N 22 35 29.56 1001 2 3 0.00 0.00
8:27 am 08:27 Cloudy with Mist and Fog 41 5 39 4 93 93 N 26 43 29.53 1000 2 3 0.00 0.00
8:53 am 08:53 Cloudy with Light Rain 41 5 40 4.4 96 96 N 21 33 29.49 999 2 3 0.00 0.03
9:53 am 09:53 Cloudy with Light Rain 41 5 39 3.9 93 93 N 24 39 29.48 998 3 4 0.00 0.03
10:03 am 10:03 Cloudy with Light Rain 41 5 39 4 93 93 N 22 35 29.56 1001 3 5 0.00 0.00
10:39 am 10:39 Cloudy with Mist and Fog 41 5 39 4 93 93 N 23 37 29.56 1001 3 4 0.00 0.00
10:48 am 10:48 Cloudy with Mist and Fog 41 5 39 4 93 93 N 28 44 29.56 1001 3 5 0.00 0.00
10:53 am 10:53 Cloudy with Mist and Fog 41 5 39 3.9 93 93 N 33 54 29.49 999 4 6 0.00 0.03
11:53 am 11:53 Cloudy with Mist and Fog 41 5 38 3.3 89 89 N 21 33 29.52 1000 3 4 0.00 0.00
12:11 pm 12:11 Cloudy with Light Rain 40 4.4 38 3.3 93 93 N 21 33 29.59 1002 3 5 0.00 0.03
12:23 pm 12:23 Cloudy with Light Rain 40 4.4 38 3.3 93 93 N 25 41 29.59 1002 2 3 0.00 0.03
12:34 pm 12:34 Cloudy with Light Rain 39 4 37 3 93 93 N 22 35 29.59 1002 3 4 0.00 0.00
12:53 pm 12:53 Cloudy with Light Rain 40 4.4 37 2.8 89 89 N 26 43 29.52 1000 3 4 0.00 0.03
1:00 pm 13:00 Cloudy with Mist and Fog 39 4 37 3 93 93 N 25 41 29.56 1001 3 5 0.00 0.00
1:53 pm 13:53 Cloudy 39 3.9 37 2.8 93 93 N 25 41 29.48 998 10 16 0.01 0.25
2:14 pm 14:14 Cloudy with Light Rain 39 4 36 2 87 87 N 23 37 29.53 1000 9 14 0.00 0.00
2:53 pm 14:53 Cloudy 38 3.3 36 2.2 93 93 N 30 48 29.45 997 9 14 0.00 0.03
3:14 pm 15:14 Windy with Snow Likely 37 3 36 2 93 93 N 25 41 29.50 999 3 4 0.00 0.00
3:33 pm 15:33 Cloudy with Light Rain 38 3.3 36 2.2 93 93 N 28 44 29.50 999 3 5 0.00 0.03
3:53 pm 15:53 Windy with Snow Likely 38 3.3 35 1.7 89 89 N 31 50 29.43 997 2 3 0.00 0.03
4:17 pm 16:17 Cloudy with Light Snow 38 3.3 35 1.7 89 89 N 16 26 29.50 999 2 2 0.00 0.03
4:53 pm 16:53 Windy with Snow Likely 37 2.8 35 1.7 93 93 N 22 35 29.47 998 1 2 0.02 0.51
5:16 pm 17:16 Cloudy with Light Snow 37 2.8 35 1.7 93 93 NNE 16 26 29.53 1000 3 4 0.02 0.51
5:25 pm 17:25 Windy with Snow Likely 37 2.8 35 1.7 93 93 N 21 33 29.50 999 3 5 0.02 0.51
5:48 pm 17:48 Windy with Snow Likely 37 3 36 2 93 93 N 21 33 29.50 999 5 8 0.00 0.00
5:53 pm 17:53 Cloudy with Light Rain 38 3.3 35 1.7 89 89 N 22 35 29.46 998 5 8 0.02 0.51
6:47 pm 18:47 Cloudy with Light Snow 37 3 36 2 93 93 N 16 26 29.56 1001 2 3 0.02 0.51
6:53 pm 18:53 Cloudy with Heavy Rain 37 2.8 35 1.7 93 93 N 9 15 29.52 1000 2 2 0.05 1.27
7:04 pm 19:04 Cloudy with Rain 37 3 36 2 93 93 N 12 19 29.56 1001 3 5 0.00 0.00
7:23 pm 19:23 Cloudy with Heavy Rain 36 2.2 35 1.7 97 97 NNW 7 11 29.56 1001 3 5 0.08 2.03
7:40 pm 19:40 Cloudy with Rain 35 1.7 33 0.6 93 93 NNW 12 19 29.56 1001 4 6 0.14 3.56
7:53 pm 19:53 Cloudy with Rain 35 1.7 33 0.6 93 93 NNW 13 20 29.51 999 5 8 0.18 4.57
8:53 pm 20:53 Cloudy with Light Rain 36 2.2 35 1.7 97 97 NNW 21 33 29.45 997 10 16 0.13 3.30
9:53 pm 21:53 Cloudy 36 2.2 36 2.2 100 100 NNW 14 22 29.45 997 10 16 0.01 0.25
10:06 pm 22:06 Cloudy 37 2.8 36 2.2 96 96 N 12 19 29.50 999 10 16 0.00 0.00
10:21 pm 22:21 Cloudy 37 3 36 2 93 93 N 13 20 29.47 998 10 16 0.00 0.00
10:53 pm 22:53 Cloudy 37 2.8 35 1.7 93 93 NNW 16 26 29.42 996 10 16 0.00 0.00
11:30 pm 23:30 Cloudy 37 3 36 2 93 93 NNW 12 19 29.47 998 10 16 0.00 0.00
11:39 pm 23:39 Cloudy with Light Rain 37 3 36 2 93 93 NNW 13 20 29.44 997 6 10 0.00 0.00
11:49 pm 23:49 Cloudy with Light Rain 36 2 36 2 100 100 NNW 12 19 29.44 997 4 6 0.00 0.03
11:53 pm 23:53 Cloudy with Light Rain 36 2.2 35 1.7 97 97 NNW 15 24 29.41 996 4 6 0.00 0.03

Powered by AerisWeather